| time (UTC) | temp C | wind direction | speed KPH | gust KPH | rain 1hr cm | rain 24hr cm | rain mn cm | humidity % | barometer mb |
| 20260507100304 | 15 | 16 | 1.6 | 12.9 | 0.00 | 0.00 | 0.00 | 61 | 1017.1 |
| 20260507090804 | 17 | 4 | 4.8 | 9.7 | 0.00 | 0.00 | 0.00 | 61 | 1016.9 |
| 20260507090304 | 17 | 95 | 3.2 | 16.1 | 0.00 | 0.00 | 0.00 | 59 | 1016.9 |
| 20260507070803 | 10 | 72 | 1.6 | 4.8 | 0.00 | 0.00 | 0.00 | 81 | 1016.5 |
| 20260507070304 | 10 | 32 | 1.6 | 12.9 | 0.00 | 0.00 | 0.00 | 82 | 1016.6 |
| 20260507050303 | 8 | 30 | 1.6 | 4.8 | 0.00 | 0.03 | 0.00 | 89 | 1015.8 |
| 20260507040304 | 8 | 11 | 1.6 | 4.8 | 0.00 | 0.03 | 0.00 | 88 | 1015.2 |
| 20260507030804 | 8 | 22 | 1.6 | 4.8 | 0.00 | 0.05 | 0.00 | 88 | 1014.9 |
| 20260507030303 | 8 | 22 | 0.0 | 4.8 | 0.00 | 0.05 | 0.00 | 88 | 1014.9 |
| 20260507010804 | 8 | 22 | 0.0 | 3.2 | 0.00 | 0.05 | 0.00 | 88 | 1014.4 |
| 20260507010306 | 8 | 22 | 1.6 | 3.2 | 0.00 | 0.05 | 0.00 | 88 | 1014.3 |
| 20260507000803 | 10 | 22 | 0.0 | 0.0 | 0.00 | 0.05 | 0.00 | 85 | 1014.0 |
| 20260506230804 | 10 | 22 | 0.0 | 1.6 | 0.00 | 0.05 | 0.00 | 85 | 1013.9 |
| 20260506230304 | 10 | 22 | 1.6 | 4.8 | 0.00 | 0.05 | 0.00 | 85 | 1013.8 |
| 20260506220304 | 10 | 22 | 1.6 | 4.8 | 0.00 | 0.05 | 0.00 | 80 | 1013.4 |
| 20260506210804 | 10 | 22 | 1.6 | 3.2 | 0.00 | 0.05 | 0.05 | 78 | 1013.1 |
| 20260506210304 | 10 | 22 | 0.0 | 4.8 | 0.00 | 0.05 | 0.05 | 78 | 1013.0 |
| 20260506200304 | 10 | 22 | 0.0 | 4.8 | 0.00 | 0.05 | 0.05 | 77 | 1012.7 |
| 20260506190304 | 11 | 78 | 1.6 | 12.9 | 0.00 | 0.05 | 0.05 | 75 | 1012.2 |
| 20260506180303 | 11 | 89 | 4.8 | 19.3 | 0.00 | 0.05 | 0.05 | 76 | 1011.7 |
| 20260506170804 | 11 | 3 | 3.2 | 8.0 | 0.00 | 0.05 | 0.05 | 79 | 1011.1 |
| 20260506150804 | 12 | 48 | 4.8 | 12.9 | 0.00 | 0.05 | 0.05 | 71 | 1010.9 |
| 20260506140303 | 13 | 74 | 4.8 | 19.3 | 0.00 | 0.05 | 0.05 | 67 | 1010.5 |
| 20260506120304 | 14 | 59 | 3.2 | 22.5 | 0.00 | 0.05 | 0.05 | 66 | 1009.8 |
| 20260506110804 | 14 | 83 | 6.4 | 14.5 | 0.00 | 0.05 | 0.05 | 67 | 1009.8 |